Tracking 19283 objects as of 17-Nov-2018
HD Live streaming from Space Station
objects crossing your sky now

USA 12

Track USA 12 now!
USA 12 is classified as:


NORAD ID: 16117
Int'l Code: 1985-092C
Perigee: 36,053.1 km
Apogee: 36,067.3 km
Inclination: 15.2 °
Period: 1,449.7 minutes
Semi major axis: 42431 km
RCS: Unknown
Launch date: October 3, 1985
Source: United States (US)
Launch site: AIR FORCE EASTERN TEST RANGE (AFETR)
aabbcc
Your satellite tracking list
Your tracking list is empty




NASA's NSSDC Master Catalog

Two Line Element Set (TLE):
1 16117U 85092C   18234.71109976 0.00000000  00000-0  00000-0 0    01
2 16117  15.2441  11.0562 0001673  87.1985 272.8251  0.99328704    04
Source of the keplerian elements: McCants